When you browse on this site, cookies collect data to enhance your experience and personalize the content and advertising you see.
Visit our Privacy Policy to learn more. By continuing to use the site, you agree to this use of cookies and data.
  • In Austria
  • List of Countries
  • For 7 days
  • Water Temperature
  • Weather Map
  • News
  • Weather Widgets
  • user-avatar
    Login

    Hourly Weather Lenguazaque

    Today, 22 September, Sunday

    Time Temperature Precipitation Wind Pressure Humidity
    00:00 +10°C° 0 mm 1 mps 551 mmHg 92%
    01:00 +10°C° 0 mm 1 mps 551 mmHg 91%
    02:00 +10°C° 0 mm 1 mps 551 mmHg 91%
    03:00 +9°C° 0 mm 1 mps 551 mmHg 91%
    04:00 +9°C° 0 mm 1 mps 551 mmHg 91%
    05:00 +10°C° 0 mm 1 mps 552 mmHg 89%
    06:00 +11°C° 0 mm 1 mps 553 mmHg 87%
    07:00 +12°C° 0 mm 1 mps 554 mmHg 85%
    08:00 +14°C° 0 mm 1 mps 555 mmHg 79%
    09:00 +15°C° 0 mm 1 mps 556 mmHg 72%
    10:00 +17°C° 0 mm 2 mps 557 mmHg 65%
    11:00 +18°C° 0.4 mm 2 mps 556 mmHg 66%
    12:00 +18°C° 0.4 mm 2 mps 556 mmHg 67%
    13:00 +18°C° 0.4 mm 3 mps 555 mmHg 67%
    14:00 +18°C° 0.5 mm 3 mps 555 mmHg 68%
    15:00 +17°C° 0.5 mm 2 mps 554 mmHg 69%
    16:00 +17°C° 0.5 mm 2 mps 553 mmHg 69%
    17:00 +15°C° 0.3 mm 2 mps 553 mmHg 77%
    18:00 +13°C° 0.3 mm 1 mps 552 mmHg 85%
    19:00 +11°C° 0.3 mm 1 mps 552 mmHg 93%
    20:00 +11°C° 0.1 mm 1 mps 552 mmHg 94%
    21:00 +10°C° 0.1 mm 1 mps 552 mmHg 95%
    22:00 +10°C° 0.1 mm 1 mps 552 mmHg 96%
    23:00 +10°C° 0 mm 1 mps 552 mmHg 96%

    Tomorrow, 23 September, Monday

    Time Temperature Precipitation Wind Pressure Humidity
    00:00 +10°C° 0 mm 1 mps 552 mmHg 96%
    01:00 +10°C° 0 mm 1 mps 552 mmHg 95%
    02:00 +10°C° 0 mm 1 mps 552 mmHg 94%
    03:00 +9°C° 0 mm 1 mps 552 mmHg 93%
    04:00 +9°C° 0 mm 1 mps 551 mmHg 93%
    05:00 +10°C° 0.1 mm 1 mps 552 mmHg 91%
    06:00 +11°C° 0.1 mm 1 mps 553 mmHg 89%
    07:00 +11°C° 0.1 mm 1 mps 553 mmHg 87%
    08:00 +14°C° 0 mm 1 mps 555 mmHg 78%
    09:00 +16°C° 0 mm 1 mps 556 mmHg 70%
    10:00 +18°C° 0 mm 2 mps 557 mmHg 61%
    11:00 +18°C° 0.3 mm 2 mps 557 mmHg 61%
    12:00 +19°C° 0.3 mm 2 mps 556 mmHg 62%
    13:00 +19°C° 0.3 mm 2 mps 556 mmHg 62%
    14:00 +18°C° 0.6 mm 2 mps 555 mmHg 68%
    15:00 +17°C° 0.6 mm 2 mps 554 mmHg 75%
    16:00 +16°C° 0.6 mm 2 mps 553 mmHg 82%
    17:00 +15°C° 0.6 mm 1 mps 552 mmHg 87%
    18:00 +13°C° 0.6 mm 1 mps 552 mmHg 91%
    19:00 +11°C° 0.6 mm 0 mps 551 mmHg 96%
    20:00 +11°C° 0.4 mm 0 mps 552 mmHg 96%
    21:00 +10°C° 0.4 mm 0 mps 552 mmHg 96%
    22:00 +10°C° 0.4 mm 0 mps 552 mmHg 96%
    23:00 +10°C° 0.3 mm 0 mps 552 mmHg 96%

    Day after tomorrow, 24 September, Tuesday

    Time Temperature Precipitation Wind Pressure Humidity
    00:00 +9°C° 0.3 mm 0 mps 552 mmHg 95%
    01:00 +9°C° 0.3 mm 0 mps 552 mmHg 94%
    02:00 +10°C° 0 mm 1 mps 551 mmHg 93%
    03:00 +9°C° 0 mm 1 mps 551 mmHg 92%
    04:00 +9°C° 0 mm 1 mps 551 mmHg 90%
    05:00 +10°C° 0 mm 1 mps 552 mmHg 89%
    06:00 +11°C° 0 mm 1 mps 552 mmHg 87%
    07:00 +10°C° 0 mm 0 mps 553 mmHg 85%
    08:00 +14°C° 0.1 mm 1 mps 555 mmHg 76%
    09:00 +16°C° 0.1 mm 1 mps 556 mmHg 67%
    10:00 +20°C° 0.1 mm 1 mps 557 mmHg 58%
    11:00 +19°C° 0.4 mm 2 mps 557 mmHg 60%
    12:00 +19°C° 0.4 mm 2 mps 556 mmHg 61%
    13:00 +19°C° 0.4 mm 2 mps 555 mmHg 63%
    14:00 +18°C° 1 mm 2 mps 554 mmHg 70%
    15:00 +18°C° 1 mm 1 mps 554 mmHg 78%
    16:00 +16°C° 1 mm 1 mps 553 mmHg 86%
    17:00 +15°C° 1.2 mm 1 mps 552 mmHg 89%
    18:00 +13°C° 1.2 mm 1 mps 552 mmHg 93%
    19:00 +12°C° 1.2 mm 1 mps 552 mmHg 97%
    20:00 +12°C° 0.8 mm 1 mps 552 mmHg 97%
    21:00 +12°C° 0.8 mm 1 mps 553 mmHg 97%
    22:00 +12°C° 0.8 mm 1 mps 553 mmHg 96%
    23:00 +12°C° 0.1 mm 1 mps 553 mmHg 96%

    25 September, Wednesday

    Time Temperature Precipitation Wind Pressure Humidity
    00:00 +10°C° 0.1 mm 0 mps 553 mmHg 96%
    01:00 +10°C° 0.1 mm 0 mps 552 mmHg 96%
    02:00 +10°C° 0 mm 0 mps 552 mmHg 95%
    03:00 +10°C° 0 mm 0 mps 552 mmHg 95%
    04:00 +10°C° 0 mm 0 mps 552 mmHg 94%
    05:00 +10°C° 0 mm 0 mps 553 mmHg 93%
    06:00 +12°C° 0 mm 1 mps 553 mmHg 92%
    07:00 +12°C° 0 mm 1 mps 554 mmHg 91%
    08:00 +13°C° 0.2 mm 1 mps 555 mmHg 87%
    09:00 +15°C° 0.2 mm 1 mps 555 mmHg 83%
    10:00 +16°C° 0.2 mm 2 mps 556 mmHg 79%
    11:00 +16°C° 0.6 mm 2 mps 556 mmHg 77%
    12:00 +17°C° 0.6 mm 2 mps 555 mmHg 76%
    13:00 +17°C° 0.6 mm 2 mps 555 mmHg 75%
    14:00 +17°C° 0.7 mm 2 mps 554 mmHg 77%
    15:00 +16°C° 0.7 mm 2 mps 554 mmHg 79%
    16:00 +16°C° 0.7 mm 2 mps 553 mmHg 81%
    17:00 +14°C° 0.3 mm 2 mps 553 mmHg 86%
    18:00 +13°C° 0.3 mm 1 mps 552 mmHg 91%
    19:00 +12°C° 0.3 mm 1 mps 552 mmHg 95%
    20:00 +11°C° 0 mm 1 mps 552 mmHg 95%
    21:00 +11°C° 0 mm 1 mps 553 mmHg 95%
    22:00 +11°C° 0 mm 1 mps 553 mmHg 96%
    23:00 +11°C° 0 mm 1 mps 552 mmHg 96%

    26 September, Thursday

    Time Temperature Precipitation Wind Pressure Humidity
    00:00 +10°C° 0 mm 1 mps 552 mmHg 96%
    01:00 +10°C° 0 mm 1 mps 552 mmHg 96%
    02:00 +10°C° 0 mm 1 mps 551 mmHg 95%
    03:00 +10°C° 0 mm 1 mps 551 mmHg 94%
    04:00 +10°C° 0 mm 1 mps 551 mmHg 94%
    05:00 +10°C° 0 mm 1 mps 552 mmHg 92%
    06:00 +11°C° 0 mm 1 mps 553 mmHg 89%
    07:00 +12°C° 0 mm 1 mps 554 mmHg 87%
    08:00 +14°C° 0 mm 2 mps 555 mmHg 75%
    09:00 +16°C° 0 mm 2 mps 556 mmHg 63%
    10:00 +18°C° 0 mm 3 mps 557 mmHg 51%
    11:00 +18°C° 0 mm 4 mps 556 mmHg 50%
    12:00 +19°C° 0 mm 4 mps 556 mmHg 48%
    13:00 +19°C° 0 mm 4 mps 555 mmHg 47%
    14:00 +19°C° 0.1 mm 4 mps 555 mmHg 51%
    15:00 +18°C° 0.1 mm 4 mps 554 mmHg 55%
    16:00 +17°C° 0.1 mm 3 mps 553 mmHg 59%
    17:00 +15°C° 0 mm 2 mps 553 mmHg 69%
    18:00 +13°C° 0 mm 2 mps 552 mmHg 78%
    19:00 +11°C° 0 mm 1 mps 551 mmHg 88%
    20:00 +10°C° 0 mm 1 mps 551 mmHg 89%
    21:00 +10°C° 0 mm 1 mps 551 mmHg 90%
    22:00 +10°C° 0 mm 1 mps 552 mmHg 91%
    23:00 +10°C° 0 mm 1 mps 551 mmHg 89%

    27 September, Friday

    Time Temperature Precipitation Wind Pressure Humidity
    00:00 +9°C° 0 mm 1 mps 551 mmHg 87%
    01:00 +9°C° 0 mm 1 mps 551 mmHg 85%
    02:00 +9°C° 0 mm 1 mps 551 mmHg 83%
    03:00 +9°C° 0 mm 1 mps 551 mmHg 82%
    04:00 +9°C° 0 mm 1 mps 550 mmHg 80%
    05:00 +10°C° 0 mm 1 mps 551 mmHg 77%
    06:00 +11°C° 0 mm 1 mps 553 mmHg 75%
    07:00 +12°C° 0 mm 1 mps 554 mmHg 72%
    08:00 +14°C° 0 mm 1 mps 555 mmHg 66%
    09:00 +16°C° 0 mm 2 mps 556 mmHg 61%
    10:00 +18°C° 0 mm 2 mps 557 mmHg 55%
    11:00 +19°C° 0.1 mm 3 mps 556 mmHg 55%
    12:00 +19°C° 0.1 mm 3 mps 556 mmHg 56%
    13:00 +19°C° 0.1 mm 3 mps 555 mmHg 57%
    14:00 +18°C° 0.7 mm 3 mps 555 mmHg 63%
    15:00 +18°C° 0.7 mm 2 mps 554 mmHg 70%
    16:00 +17°C° 0.7 mm 2 mps 553 mmHg 77%
    17:00 +15°C° 0.6 mm 2 mps 553 mmHg 83%
    18:00 +14°C° 0.6 mm 1 mps 552 mmHg 89%
    19:00 +12°C° 0.6 mm 1 mps 552 mmHg 96%
    20:00 +12°C° 0.2 mm 1 mps 552 mmHg 96%
    21:00 +11°C° 0.2 mm 1 mps 552 mmHg 96%
    22:00 +11°C° 0.2 mm 1 mps 552 mmHg 96%
    23:00 +10°C° 0 mm 1 mps 552 mmHg 95%
    Show more